Regional Weather Roundup
Issued by NWS

Home | Current Version | Previous Version | Graphics & Text | Print | Product List | Glossary On
Versions: 1 2 3 4 5 6 7 8 9 10 11 12 13 14 15 16 17 18 19 20 21 22 23 24 25 26 27 28 29 30 31 32 33 34 35 36 37 38 39 40 41 42 43 44 45 46 47 48 49 50
000
ASUS45 KPSR 300010
RWRAZ

ARIZONA HOURLY REGIONAL WEATHER ROUNDUP
NATIONAL WEATHER SERVICE PHOENIX AZ
500 PM MST THU SEP 29 2016

NOTE: FAIR INDICATES FEW OR NO CLOUDS BELOW 12,000 FEET WITH NO
SIGNIFICANT WEATHER AND/OR OBSTRUCTIONS TO VISIBILITY.

AZZ001>003-036-300100-
NORTHWEST ARIZONA

CITY           SKY/WX    TMP DP  RH WIND       PRES   REMARKS
BULLHEAD CITY  MOSUNNY   95  48  20 S12       29.95F
KINGMAN        PTSUNNY   81  46  29 SW15      30.14F
6HR MIN TEMP:  79; 6HR MAX TEMP:  87;

$$

AZZ004>008-015-016-018-300100-
NORTH CENTRAL ARIZONA

CITY           SKY/WX    TMP DP  RH WIND       PRES   REMARKS
GRAND CANYON   LGT RAIN  55  50  83 NW9G25    30.37S
6HR MIN TEMP:  58; 6HR MAX TEMP:  66; 6HR PCP: TRACE;

PRESCOTT       MOSUNNY   71  55  56 SE8       30.27F
6HR MIN TEMP:  65; 6HR MAX TEMP:  72;

FLAGSTAFF      PTSUNNY   58  51  78 CALM      30.39F
6HR MIN TEMP:  55; 6HR MAX TEMP:  60; 6HR PCP:  0.03;

PAYSON         SUNNY     72  52  49 VRB5      30.30F
PAGE           CLOUDY    65  61  87 SE7       30.27S
6HR MIN TEMP:  65; 6HR MAX TEMP:  73; 6HR PCP:  0.03;

$$

AZZ009>014-017-300100-
NORTHEAST ARIZONA

CITY           SKY/WX    TMP DP  RH WIND       PRES   REMARKS
WINSLOW        PTSUNNY   65  56  72 E12       30.31F
6HR MIN TEMP:  59; 6HR MAX TEMP:  69; 6HR PCP:  0.47;

SAINT JOHNS    MOSUNNY   61  55  81 CALM      30.35F
6HR MIN TEMP:  57; 6HR MAX TEMP:  64; 6HR PCP:  0.15;

WINDOW ROCK    CLOUDY    57  51  80 SE5       30.43F
6HR MIN TEMP:  55; 6HR MAX TEMP:  58; 6HR PCP:  0.33;

SHOW LOW       MOSUNNY   59  54  82 NE12      30.38F
$$

AZZ023-300100-
GREATER PHOENIX AREA

CITY           SKY/WX    TMP DP  RH WIND       PRES   REMARKS
PHOENIX        MOSUNNY   92  54  27 N5        29.98F
6HR MIN TEMP:  79; 6HR MAX TEMP:  93;

BUCKEYE        SUNNY     91  55  29 SE5       30.00F
GLENDALE       MOSUNNY   93  55  27 CALM      30.00F
LUKE AFB       SUNNY     92  54  26 N6        29.98F
6HR MIN TEMP:  84; 6HR MAX TEMP:  93; 6HR PCP: TRACE;

DEER VALLEY    SUNNY     91  53  27 SE5       30.00F
6HR MIN TEMP:  80; 6HR MAX TEMP:  92;

SCOTTSDALE     SUNNY     92  52  25 N6        30.02F
6HR MIN TEMP:  81; 6HR MAX TEMP:  92;

MESA-FALCON    SUNNY    N/A N/A N/A NW6       29.97F
MESA-GATEWAY   MOSUNNY   91  54  27 CALM      30.00F
CHANDLER       MOSUNNY   91  52  25 VRB5      29.99F
$$

AZZ027-028-300100-
SOUTHWEST MARICOPA COUNTY AND PINAL COUNTY

CITY           SKY/WX    TMP DP  RH WIND       PRES   REMARKS
CASA GRANDE    SUNNY     91  55  29 NW7       30.02F
6HR MIN TEMP:  81; 6HR MAX TEMP:  91;

GILA BEND      MOSUNNY   94  52  23 NW7       29.95F
6HR MIN TEMP:  88; 6HR MAX TEMP:  95;

$$

AZZ503-504-507>509-300100-
SOUTHEAST ARIZONA

CITY           SKY/WX    TMP DP  RH WIND       PRES   REMARKS
TUCSON         PTSUNNY   88  61  40 N15       30.07S
6HR MIN TEMP:  79; 6HR MAX TEMP:  93;

DAVIS-MONTHAN  DRIZZLE   88  61  40 N10       30.07S
6HR MIN TEMP:  79; 6HR MAX TEMP:  90; 6HR PCP: TRACE;

RYAN FIELD     SUNNY     88  63  42 NW12      30.06S
NOGALES        PTSUNNY   82  58  43 SE12      30.15S
6HR MIN TEMP:  78; 6HR MAX TEMP:  88;

SIERRA VISTA   CLOUDY    65  62  90 NW8       30.23S
6HR MIN TEMP:  64; 6HR MAX TEMP:  82; 6HR PCP:  0.11;

DOUGLAS        CLOUDY    76  59  55 NW21G26   30.16R
6HR MIN TEMP:  76; 6HR MAX TEMP:  88;

SAFFORD        MOSUNNY   85  59  41 NW15      30.07F
6HR MIN TEMP:  81; 6HR MAX TEMP:  90;

$$

AZZ020-021-025-026-031-300100-
SOUTHWEST ARIZONA

CITY           SKY/WX    TMP DP  RH WIND       PRES   REMARKS
YUMA           MOSUNNY   96  53  23 W6        29.93F
6HR MIN TEMP:  86; 6HR MAX TEMP:  97; 6HR PCP: TRACE;

$$

CAZ031-033-041-043-047-048-061-300100-
SOUTHERN CALIFORNIA

CITY           SKY/WX    TMP DP  RH WIND       PRES   REMARKS
DOWNTOWN L.A.  SUNNY     83  56  39 W6        29.96F
6HR MIN TEMP:  83; 6HR MAX TEMP:  92;

L.A. AIRPORT   MOSUNNY   75  59  57 W15       29.98F
6HR MIN TEMP:  75; 6HR MAX TEMP:  82;

SAN DIEGO      MOSUNNY   81  60  48 NW8       30.00S
6HR MIN TEMP:  80; 6HR MAX TEMP:  86;

BURBANK        SUNNY     90  48  23 S8        29.98S
6HR MIN TEMP:  87; 6HR MAX TEMP:  93;

ONTARIO        MOSUNNY   92  48  22 W13       29.98S
6HR MIN TEMP:  88; 6HR MAX TEMP:  96;

RIVERSIDE      MOSUNNY   93  48  21 W17       29.97S
6HR MIN TEMP:  89; 6HR MAX TEMP:  97;

PALM SPRINGS   MOSUNNY   94  51  23 E9        29.95F
6HR MIN TEMP:  88; 6HR MAX TEMP:  97;

EL CENTRO NAS  CLOUDY    92  53  26 W18       29.94F
6HR MIN TEMP:  89; 6HR MAX TEMP:  97;

IMPERIAL       PTSUNNY   94  58  29 W15       29.92S
6HR MIN TEMP:  87; 6HR MAX TEMP:  97;

BLYTHE         MOSUNNY   94  49  21 S3        29.95F
6HR MIN TEMP:  87; 6HR MAX TEMP:  95;

NEEDLES        MOSUNNY   97  48  18 CALM      29.96F
6HR MIN TEMP:  90; 6HR MAX TEMP: 100;

$$

NVZ020-UTZ003-300100-
SOUTHERN NEVADA-UTAH

CITY           SKY/WX    TMP DP  RH WIND       PRES   REMARKS
LAS VEGAS      MOSUNNY   88  44  21 E6        30.03F
6HR MIN TEMP:  81; 6HR MAX TEMP:  90;

SALT LAKE CITY MOSUNNY   75  51  43 N6        30.16F
6HR MIN TEMP:  70; 6HR MAX TEMP:  78;

$$

NMZ009-TXZ055-300100-
NEW MEXICO-WEST TEXAS

CITY           SKY/WX    TMP DP  RH WIND       PRES   REMARKS
ALBUQUERQUE    LGT RAIN  68  57  68 W39G53    30.34R
6HR MIN TEMP:  68; 6HR MAX TEMP:  83; 6HR PCP: TRACE;

EL PASO        MOSUNNY   84  39  20 SE13      30.21S
6HR MIN TEMP:  81; 6HR MAX TEMP:  86;

$$


........................KEY........................
SKY/WX - SKY CONDITION/WEATHER
TMP    - TEMPERATURE IN FAHRENHEIT
DP     - DEW POINT IN FAHRENHEIT
RH     - RELATIVE HUMIDITY IN PERCENT
WIND   - DIRECTION AND SPEED IN MILES PER HOUR (MPH)
VRB    - VARIABLE WIND DIRECTION
PRES   - MEAN SEA LEVEL PRESSURE IN INCHES OF MERCURY
         F - FALLING PRESSURE   R - RISING PRESSURE
         S - STEADY PRESSURE
VSB    - VISIBILITY IN MILES
HX     - HEAT INDEX IN FAHRENHEIT
WCI    - WIND CHILL INDEX IN FAHRENHEIT
TC     - TEMPERATURE IN CELSIUS WHICH IS ALSO KNOWN AS
         TEMPERATURE IN CENTIGRADE
AFB    - AIR FORCE BASE
         LUKE AFB IS LUKE AIR FORCE BASE
         DAVIS-MONTHAN IS DAVIS-MONTHAN AIR FORCE BASE
NAS    - NAVAL AIR STATION
         EL CENTRO NAS IS EL CENTRO NAVAL AIR STATION
N/A    - NOT AVAILABLE




USA.gov is the U.S. government's official web portal to all federal, state and local government web resources and services.